Regional Weather Roundup
Issued by NWS

Home | Current Version | Previous Version | Graphics & Text | Print | Product List | Glossary On
Versions: 1 2 3 4 5 6 7 8 9 10 11 12 13 14 15 16 17 18 19 20 21 22 23 24 25 26 27 28 29 30 31 32 33 34 35 36 37 38 39 40 41 42 43 44 45 46 47 48 49 50
000
ASUS43 KLMK 211602
RWRKY
KENTUCKY REGIONAL WEATHER ROUNDUP
NATIONAL WEATHER SERVICE LOUISVILLE KY
1100 AM EST TUE FEB 21 2017

NOTE "FAIR" INDICATES FEW OR NO CLOUDS BELOW 12,000 FEET
WITH NO SIGNIFICANT WEATHER AND/OR OBSTRUCTIONS TO VISIBILITY.

KYZ001>023-026-027-061>063-070>075-211700-
WESTERN AND SOUTH CENTRAL KENTUCKY

CITY           SKY/WX    TMP DP  RH WIND       PRES   REMARKS
PADUCAH        LGT RAIN  61  54  77 E8        29.91F
HENDERSON      CLOUDY    57  48  72 CALM      29.98R
OWENSBORO      CLOUDY    64  51  62 S8        29.99R
HOPKINSVILLE   DRIZZLE   63  53  67 SE10      29.95F
BOWLING GREEN  CLOUDY    69  49  48 SE6       30.00F
GLASGOW        NOT AVBL
$$

KYZ024-025-028>034-038-045-046-053-211700-
NORTH CENTRAL KENTUCKY

CITY           SKY/WX    TMP DP  RH WIND       PRES   REMARKS
LOUISVILLE/SDF CLOUDY    67  44  43 S10       30.01S
LOUISVILLE/LOU CLOUDY    66  46  48 S10       30.02S
FORT KNOX      CLOUDY    66  48  52 S12       29.99F
$$

KYZ035>037-039>044-047>052-055>060-089>105-211700-
NORTHEAST KENTUCKY

CITY           SKY/WX    TMP DP  RH WIND       PRES   REMARKS
LEXINGTON      PTSUNNY   68  43  40 SW23      30.05R
COVINGTON      CLOUDY    64  46  52 SW9       30.02S
FRANKFORT      MOSUNNY   66  45  46 S6        30.02F
$$

KYZ054-064>069-076>088-106>120-211700-
SOUTHEAST KENTUCKY

CITY           SKY/WX    TMP DP  RH WIND       PRES   REMARKS
JACKSON        MOSUNNY   65  38  36 S6        30.09R
LONDON         MOSUNNY   64  38  38 SE8       30.07S
SOMERSET       MOSUNNY   61  41  48 CALM      30.07F
MIDDLESBORO    MOSUNNY   62  42  46 CALM      30.09S
MONTICELLO     MOSUNNY   68  46  45 VRB6G17   30.06F
$$





USA.gov is the U.S. government's official web portal to all federal, state and local government web resources and services.